Weather History for West Point, VA

Change the Weather History Date:

Friday, January 10, 2014

  Actual Average (KRIC) Record (KRIC)
Temperature  
Mean Temperature 38 °F 38 °F  
Max Temperature 47 °F 47 °F 75 °F (1930)
Min Temperature 29 °F 28 °F -6 °F (1942)
Degree Days  
Heating Degree Days 28 27  
Month to date heating degree days 270  
Since 1 July heating degree days 1689  
Cooling Degree Days 0 0  
Month to date cooling degree days 0  
Year to date cooling degree days 0  
Moisture  
Dew Point 36 °F    
Average Humidity 88    
Maximum Humidity 93    
Minimum Humidity 80    
Precipitation  
Precipitation 0.14 in 0.09 in 2.32 in (1921)
Month to date precipitation 0.96  
Year to date precipitation 0.96  
Snow  
Snow 0.00 in 0.10 in 7.10 in (1962)
Month to date snowfall 0.9  
Since 1 July snowfall 3.2  
Snow Depth -    
Sea Level Pressure  
Sea Level Pressure 30.37 in    
Wind  
Wind Speed 1 mph (NNE)    
Max Wind Speed 5 mph    
Max Gust Speed -    
Visibility 6 miles    
Events      
T = Trace of Precipitation, MM = Missing Value Source: NWS Daily Summary

Daily Weather History Graph

Daily Weather History Graph

Search for Another Location

Airport:

Trip Planner

Search our weather history database for the weather conditions in past years. The results will help you decide how hot, cold, wet, or windy it might be!

Date:

Astronomy

Jan. 10, 2014 Rise Set
Actual Time 7:21 AM EST 5:07 PM EST
Civil Twilight 6:53 AM EST 5:36 PM EST
Nautical Twilight 6:20 AM EST 6:08 PM EST
Astronomical Twilight 5:49 AM EST 6:40 PM EST
Moon 1:08 PM EST (1/10) 2:29 AM EST (1/10)
Length of Visible Light 10h 43m
Length of Day
9h 45m
Waxing Gibbous, 75% of the Moon is Illuminated
Jan 10
Waxing Gibbous
Jan 15
Full
Jan 24
Last Quarter
Jan 30
New
Feb 6
First Quarter

Hourly Weather History & Observations

Time (EST) Temp. Windchill Dew Point Humidity Pressure Visibility Wind Dir Wind Speed Gust Speed Precip Events Conditions
12:15 AM 31.1 °F - 27.0 °F 85% 30.53 in 10.0 mi Calm Calm - N/A   Mostly Cloudy
12:35 AM 31.1 °F - 27.1 °F 85% 30.52 in 10.0 mi Calm Calm - N/A   Scattered Clouds
12:55 AM 29.5 °F - 25.5 °F 85% 30.51 in 10.0 mi Calm Calm - N/A   Clear
1:15 AM 30.9 °F - 27.3 °F 86% 30.51 in 10.0 mi Calm Calm - N/A   Mostly Cloudy
1:35 AM 32.0 °F - 28.9 °F 88% 30.50 in 10.0 mi Calm Calm - N/A   Overcast
1:55 AM 32.4 °F - 29.1 °F 88% 30.50 in 10.0 mi Calm Calm - N/A   Overcast
2:15 AM 33.3 °F - 30.0 °F 88% 30.50 in 10.0 mi Calm Calm - N/A   Overcast
2:35 AM 33.8 °F - 30.2 °F 87% 30.50 in 10.0 mi Calm Calm - N/A   Overcast
2:55 AM 34.2 °F - 30.6 °F 87% 30.50 in 10.0 mi Calm Calm - N/A   Overcast
3:15 AM 34.3 °F - 30.7 °F 87% 30.48 in 10.0 mi Calm Calm - N/A   Overcast
3:35 AM 34.9 °F - 30.9 °F 85% 30.48 in 10.0 mi Calm Calm - N/A   Overcast
3:55 AM 35.1 °F - 30.9 °F 85% 30.47 in 10.0 mi Calm Calm - N/A   Overcast
4:15 AM 35.6 °F 32.8 °F 31.1 °F 84% 30.47 in 10.0 mi NNW 3.5 mph - N/A   Overcast
4:35 AM 35.8 °F - 31.1 °F 83% 30.47 in 10.0 mi Calm Calm - N/A   Overcast
4:55 AM 36.3 °F - 31.8 °F 84% 30.45 in 10.0 mi Calm Calm - N/A   Overcast
5:15 AM 36.1 °F - 31.8 °F 84% 30.45 in 10.0 mi Calm Calm - N/A   Overcast
5:35 AM 36.5 °F - 32.0 °F 84% 30.44 in 10.0 mi Calm Calm - N/A   Overcast
5:55 AM 36.5 °F - 32.0 °F 84% 30.44 in 10.0 mi Calm Calm - N/A   Overcast
6:15 AM 36.5 °F - 32.0 °F 84% 30.44 in 10.0 mi Calm Calm - N/A   Overcast
6:35 AM 36.7 °F - 32.0 °F 83% 30.44 in 10.0 mi Calm Calm - N/A   Overcast
6:55 AM 37.0 °F - 32.0 °F 82% 30.43 in 10.0 mi Calm Calm - N/A   Overcast
7:15 AM 36.9 °F - 32.0 °F 83% 30.43 in 10.0 mi Calm Calm - N/A   Overcast
7:35 AM 37.2 °F - 32.0 °F 81% 30.43 in 10.0 mi Calm Calm - N/A   Overcast
7:55 AM 37.4 °F - 32.0 °F 81% 30.44 in 10.0 mi Calm Calm - N/A   Overcast
8:15 AM 37.6 °F 35.1 °F 32.0 °F 80% 30.45 in 10.0 mi WNW 3.5 mph - N/A   Overcast
8:35 AM 37.4 °F 33.8 °F 32.0 °F 81% 30.45 in 10.0 mi NW 4.6 mph - N/A   Overcast
8:55 AM 37.0 °F 34.5 °F 32.0 °F 82% 30.45 in 7.0 mi NNW 3.5 mph - N/A   Overcast
9:15 AM 37.4 °F 34.9 °F 32.7 °F 83% 30.46 in 7.0 mi NNW 3.5 mph - N/A   Overcast
9:35 AM 37.4 °F 33.8 °F 32.9 °F 84% 30.47 in 5.0 mi NNW 4.6 mph - N/A   Overcast
9:55 AM 37.2 °F 34.7 °F 33.1 °F 85% 30.46 in 4.0 mi NNW 3.5 mph - 0.01 in   Overcast
10:15 AM 37.4 °F - 33.8 °F 87% 30.46 in 4.0 mi Calm Calm - N/A   Overcast
10:35 AM 37.9 °F - 34.5 °F 87% 30.46 in 4.0 mi Calm Calm - N/A   Overcast
10:55 AM 39.2 °F - 35.8 °F 88% 30.44 in 4.0 mi Calm Calm - N/A   Overcast
11:15 AM 39.4 °F - 36.0 °F 88% 30.43 in 5.0 mi Calm Calm - N/A   Overcast
11:35 AM 40.5 °F 37.3 °F 37.0 °F 88% 30.42 in 4.0 mi North 4.6 mph - N/A   Overcast
11:55 AM 40.8 °F 38.8 °F 37.4 °F 88% 30.40 in 4.0 mi North 3.5 mph - N/A   Overcast
12:15 PM 41.0 °F 39.0 °F 37.8 °F 88% 30.39 in 4.0 mi North 3.5 mph - N/A   Overcast
12:35 PM 41.2 °F 38.2 °F 38.1 °F 89% 30.38 in 4.0 mi North 4.6 mph - N/A   Overcast
12:55 PM 41.4 °F - 38.3 °F 89% 30.37 in 3.0 mi Calm Calm - N/A   Overcast
1:15 PM 41.2 °F 38.2 °F 38.3 °F 89% 30.37 in 1.8 mi North 4.6 mph - 0.01 in   Overcast
1:35 PM 41.2 °F - 38.3 °F 89% 30.36 in 1.8 mi Calm Calm - 0.03 in   Overcast
1:55 PM 41.5 °F - 38.8 °F 90% 30.36 in 2.0 mi Calm Calm - 0.04 in   Overcast
2:15 PM 41.9 °F 39.0 °F 39.2 °F 90% 30.35 in 2.5 mi ENE 4.6 mph - 0.01 in   Overcast
2:35 PM 41.9 °F - 39.2 °F 90% 30.35 in 3.0 mi Calm Calm - 0.03 in   Overcast
2:55 PM 42.3 °F - 39.6 °F 90% 30.35 in 2.5 mi Calm Calm - 0.04 in   Overcast
3:15 PM 42.3 °F 40.5 °F 39.7 °F 91% 30.34 in 3.0 mi NE 3.5 mph - 0.01 in   Overcast
3:35 PM 42.8 °F - 40.1 °F 90% 30.34 in 2.5 mi Calm Calm - 0.01 in   Overcast
3:55 PM 43.0 °F - 40.5 °F 91% 30.33 in 2.5 mi Calm Calm - 0.02 in   Overcast
4:15 PM 43.2 °F - 40.6 °F 91% 30.33 in 2.5 mi Calm Calm - N/A   Overcast
4:35 PM 43.3 °F - 40.8 °F 91% 30.32 in 4.0 mi Calm Calm - N/A   Overcast
4:55 PM 43.2 °F 41.5 °F 41.0 °F 92% 30.31 in 3.0 mi East 3.5 mph - 0.01 in   Overcast
5:15 PM 43.2 °F - 40.8 °F 91% 30.31 in 4.0 mi Calm Calm - N/A   Overcast
5:35 PM 43.3 °F - 41.0 °F 91% 30.30 in 2.0 mi Calm Calm - N/A   Overcast
5:55 PM 43.3 °F 40.7 °F 41.0 °F 91% 30.29 in 2.0 mi ENE 4.6 mph - 0.01 in   Overcast
6:15 PM 43.7 °F 42.1 °F 41.4 °F 91% 30.28 in 2.5 mi East 3.5 mph - N/A   Overcast
6:35 PM 43.7 °F 41.1 °F 41.5 °F 92% 30.27 in 3.0 mi ESE 4.6 mph - N/A   Overcast
6:55 PM 43.9 °F - 41.9 °F 93% 30.27 in 4.0 mi Calm Calm - N/A   Mostly Cloudy
7:15 PM 43.9 °F - 41.9 °F 93% 30.27 in 3.0 mi Calm Calm - 0.01 in   Scattered Clouds
7:35 PM 43.7 °F - 41.5 °F 92% 30.26 in 2.0 mi Calm Calm - 0.01 in   Mostly Cloudy
7:55 PM 43.5 °F - 41.2 °F 91% 30.26 in 1.8 mi Calm Calm - 0.01 in   Overcast
8:15 PM 43.3 °F - 41.2 °F 92% 30.25 in 1.8 mi Calm Calm - N/A   Overcast
8:35 PM 43.7 °F - 41.5 °F 92% 30.24 in 1.8 mi Calm Calm - N/A   Overcast
8:55 PM 43.7 °F - 41.5 °F 92% 30.23 in 1.8 mi Calm Calm - N/A   Overcast
9:15 PM 44.8 °F - 42.8 °F 93% 30.22 in 2.0 mi Calm Calm - N/A   Overcast
9:35 PM 43.9 °F 42.3 °F 41.9 °F 93% 30.21 in 2.0 mi SSE 3.5 mph - N/A   Overcast
9:55 PM 44.2 °F - 42.3 °F 93% 30.21 in 2.0 mi Calm Calm - N/A   Mostly Cloudy
10:15 PM 44.1 °F - 42.1 °F 93% 30.20 in 1.8 mi Calm Calm - N/A   Overcast
10:35 PM 44.1 °F - 42.1 °F 93% 30.19 in 1.5 mi Calm Calm - N/A   Overcast
10:55 PM 44.2 °F - 42.3 °F 93% 30.18 in 1.5 mi Calm Calm - N/A   Overcast
11:15 PM 46.8 °F - 44.8 °F 93% 30.17 in 4.0 mi Calm Calm - N/A   Overcast
11:35 PM 46.9 °F - 45.0 °F 93% 30.16 in 2.5 mi Calm Calm - N/A   Overcast
11:55 PM 45.3 °F - 43.2 °F 92% 30.15 in 2.0 mi Calm Calm - N/A   Overcast